Wetterdaten: Samstag, 07.12.2013
Datum Zeit Temperatur Luftfeuchte Luftdruck Regen Wind Richtung Richtung Taupunkt Windchill Windben
07.12.2013 00:00 -1,8 C 79 % 1023,1 hPa 0,0 l/m 0,0 km/h (0 Bft) S 180 -4,9 C -1,6 C 0,0 km/h (0 Bft)
07.12.2013 00:05 -1,8 C 79 % 1023,3 hPa 0,0 l/m 0,0 km/h (0 Bft) S 180 -4,9 C -1,6 C 0,0 km/h (0 Bft)
07.12.2013 00:10 -1,7 C 78 % 1023,3 hPa 0,0 l/m 0,0 km/h (0 Bft) S 180 -5,0 C -1,6 C 0,0 km/h (0 Bft)
07.12.2013 00:15 -1,7 C 78 % 1023,3 hPa 0,0 l/m 0,0 km/h (0 Bft) S 180 -5,0 C -1,6 C 0,0 km/h (0 Bft)
07.12.2013 00:20 -1,7 C 77 % 1023,3 hPa 0,0 l/m 0,0 km/h (0 Bft) S 180 -5,2 C -1,6 C 0,0 km/h (0 Bft)
07.12.2013 00:25 -1,5 C 76 % 1023,4 hPa 0,0 l/m 0,0 km/h (0 Bft) S 180 -5,2 C -1,6 C 0,0 km/h (0 Bft)
07.12.2013 00:30 -1,4 C 73 % 1023,4 hPa 0,0 l/m 0,0 km/h (0 Bft) S 180 -5,6 C -1,6 C 0,0 km/h (0 Bft)
07.12.2013 00:35 -1,4 C 73 % 1023,4 hPa 0,0 l/m 0,0 km/h (0 Bft) S 180 -5,6 C -1,6 C 0,0 km/h (0 Bft)
07.12.2013 00:40 -1,4 C 72 % 1023,4 hPa 0,0 l/m 0,0 km/h (0 Bft) S 180 -5,8 C -1,6 C 0,0 km/h (0 Bft)
07.12.2013 00:45 -1,4 C 72 % 1023,5 hPa 0,0 l/m 0,0 km/h (0 Bft) S 180 -5,8 C -1,6 C 0,0 km/h (0 Bft)
07.12.2013 00:50 -1,3 C 72 % 1023,5 hPa 0,0 l/m 0,0 km/h (0 Bft) S 180 -5,7 C -1,6 C 0,0 km/h (0 Bft)
07.12.2013 00:55 -1,2 C 71 % 1023,5 hPa 0,0 l/m 0,0 km/h (0 Bft) S 180 -5,8 C -1,6 C 0,0 km/h (0 Bft)
07.12.2013 01:00 -1,2 C 71 % 1023,5 hPa 0,0 l/m 0,0 km/h (0 Bft) S 180 -5,8 C -1,6 C 0,0 km/h (0 Bft)
07.12.2013 01:05 -1,2 C 71 % 1023,4 hPa 0,0 l/m 0,0 km/h (0 Bft) S 180 -5,8 C -1,6 C 0,0 km/h (0 Bft)
07.12.2013 01:10 -1,3 C 73 % 1023,4 hPa 0,0 l/m 0,0 km/h (0 Bft) S 180 -5,5 C -1,6 C 0,0 km/h (0 Bft)
07.12.2013 01:15 -1,3 C 74 % 1023,4 hPa 0,0 l/m 0,0 km/h (0 Bft) S 180 -5,3 C -1,6 C 0,0 km/h (0 Bft)
07.12.2013 01:20 -1,4 C 75 % 1023,4 hPa 0,0 l/m 0,0 km/h (0 Bft) S 180 -5,2 C -1,6 C 0,0 km/h (0 Bft)
07.12.2013 01:25 -1,5 C 77 % 1023,7 hPa 0,0 l/m 0,0 km/h (0 Bft) S 180 -5,0 C -1,6 C 0,0 km/h (0 Bft)
07.12.2013 01:30 -1,9 C 80 % 1023,7 hPa 0,0 l/m 0,0 km/h (0 Bft) S 180 -4,9 C -1,6 C 0,0 km/h (0 Bft)
07.12.2013 01:35 -2,4 C 83 % 1023,7 hPa 0,0 l/m 0,0 km/h (0 Bft) S 180 -4,9 C -1,6 C 0,0 km/h (0 Bft)
07.12.2013 01:40 -2,7 C 86 % 1023,7 hPa 0,0 l/m 0,0 km/h (0 Bft) S 180 -4,7 C -1,6 C 0,0 km/h (0 Bft)
07.12.2013 01:45 -2,7 C 86 % 1024,1 hPa 0,0 l/m 0,0 km/h (0 Bft) S 180 -4,7 C -1,6 C 0,0 km/h (0 Bft)
07.12.2013 01:50 -2,7 C 86 % 1024,1 hPa 0,0 l/m 0,0 km/h (0 Bft) S 180 -4,7 C -1,6 C 0,0 km/h (0 Bft)
07.12.2013 01:55 -2,7 C 86 % 1024,1 hPa 0,0 l/m 0,0 km/h (0 Bft) S 180 -4,7 C -1,6 C 0,0 km/h (0 Bft)
07.12.2013 02:00 -2,7 C 87 % 1024,1 hPa 0,0 l/m 0,0 km/h (0 Bft) S 180 -4,6 C -1,6 C 0,0 km/h (0 Bft)
07.12.2013 02:05 -2,6 C 87 % 1024,3 hPa 0,0 l/m 0,0 km/h (0 Bft) S 180 -4,5 C -1,6 C 0,0 km/h (0 Bft)
07.12.2013 02:10 -2,5 C 87 % 1024,3 hPa 0,0 l/m 0,0 km/h (0 Bft) S 180 -4,4 C -1,6 C 0,0 km/h (0 Bft)
07.12.2013 02:15 -2,5 C 85 % 1024,3 hPa 0,0 l/m 0,0 km/h (0 Bft) S 180 -4,7 C -1,6 C 0,0 km/h (0 Bft)
07.12.2013 02:20 -2,5 C 84 % 1024,3 hPa 0,0 l/m 0,0 km/h (0 Bft) S 180 -4,8 C -1,6 C 0,0 km/h (0 Bft)
07.12.2013 02:25 -2,5 C 84 % 1024,7 hPa 0,0 l/m 0,0 km/h (0 Bft) S 180 -4,8 C -1,6 C 0,0 km/h (0 Bft)
07.12.2013 02:30 -2,7 C 84 % 1024,7 hPa 0,0 l/m 0,0 km/h (0 Bft) S 180 -5,0 C -1,6 C 0,0 km/h (0 Bft)
07.12.2013 02:35 -2,7 C 84 % 1024,7 hPa 0,0 l/m 0,0 km/h (0 Bft) S 180 -5,0 C -1,6 C 0,0 km/h (0 Bft)
07.12.2013 02:40 -2,7 C 85 % 1024,7 hPa 0,0 l/m 0,0 km/h (0 Bft) S 180 -4,9 C -1,6 C 0,0 km/h (0 Bft)
07.12.2013 02:45 -2,5 C 85 % 1024,8 hPa 0,0 l/m 0,0 km/h (0 Bft) S 180 -4,7 C -1,6 C 0,0 km/h (0 Bft)
07.12.2013 02:50 -2,5 C 85 % 1024,8 hPa 0,0 l/m 0,0 km/h (0 Bft) S 180 -4,7 C -1,6 C 0,0 km/h (0 Bft)
07.12.2013 02:55 -2,4 C 85 % 1024,8 hPa 0,0 l/m 0,0 km/h (0 Bft) S 180 -4,6 C -1,6 C 0,0 km/h (0 Bft)
07.12.2013 03:00 -2,4 C 84 % 1024,8 hPa 0,0 l/m 0,0 km/h (0 Bft) S 180 -4,7 C -1,6 C 0,0 km/h (0 Bft)
07.12.2013 03:05 -2,2 C 84 % 1024,4 hPa 0,0 l/m 0,0 km/h (0 Bft) S 180 -4,5 C -1,6 C 0,0 km/h (0 Bft)
07.12.2013 03:10 -2,1 C 84 % 1024,4 hPa 0,0 l/m 0,0 km/h (0 Bft) S 180 -4,4 C -1,6 C 0,0 km/h (0 Bft)
07.12.2013 03:15 -2,1 C 84 % 1024,4 hPa 0,0 l/m 0,0 km/h (0 Bft) S 180 -4,4 C -1,6 C 0,0 km/h (0 Bft)
07.12.2013 03:20 -2,1 C 84 % 1024,4 hPa 0,0 l/m 0,0 km/h (0 Bft) S 180 -4,4 C -1,6 C 0,0 km/h (0 Bft)
07.12.2013 03:25 -2,1 C 84 % 1024,6 hPa 0,0 l/m 0,0 km/h (0 Bft) S 180 -4,4 C -1,6 C 0,0 km/h (0 Bft)
07.12.2013 03:30 -2,1 C 85 % 1024,6 hPa 0,0 l/m 0,0 km/h (0 Bft) S 180 -4,3 C -1,6 C 0,0 km/h (0 Bft)
07.12.2013 03:35 -2,2 C 85 % 1024,6 hPa 0,0 l/m 0,0 km/h (0 Bft) S 180 -4,4 C -1,6 C 0,0 km/h (0 Bft)
07.12.2013 03:39 -2,1 C 85 % 1024,6 hPa 0,0 l/m 0,0 km/h (0 Bft) S 180 -4,3 C -1,6 C 0,0 km/h (0 Bft)
07.12.2013 03:40 -2,0 C 85 % 1024,5 hPa 0,0 l/m 0,0 km/h (0 Bft) S 180 -4,2 C -1,6 C 0,0 km/h (0 Bft)
07.12.2013 03:45 -2,0 C 85 % 1024,5 hPa 0,0 l/m 0,0 km/h (0 Bft) S 180 -4,2 C -1,6 C 0,0 km/h (0 Bft)
07.12.2013 03:50 -2,0 C 85 % 1024,5 hPa 0,0 l/m 0,0 km/h (0 Bft) S 180 -4,2 C -1,6 C 0,0 km/h (0 Bft)
07.12.2013 03:55 -1,9 C 85 % 1024,5 hPa 0,0 l/m 0,0 km/h (0 Bft) S 180 -4,1 C -1,6 C 0,0 km/h (0 Bft)
07.12.2013 04:00 -1,9 C 84 % 1024,5 hPa 0,0 l/m 0,0 km/h (0 Bft) S 180 -4,2 C -1,6 C 0,0 km/h (0 Bft)
07.12.2013 04:05 -1,9 C 84 % 1024,3 hPa 0,0 l/m 0,0 km/h (0 Bft) S 180 -4,2 C -1,6 C 0,0 km/h (0 Bft)
07.12.2013 04:10 -1,8 C 83 % 1024,3 hPa 0,0 l/m 0,0 km/h (0 Bft) S 180 -4,3 C -1,6 C 0,0 km/h (0 Bft)
07.12.2013 04:15 -1,8 C 83 % 1024,3 hPa 0,0 l/m 0,0 km/h (0 Bft) S 180 -4,3 C -1,6 C 0,0 km/h (0 Bft)
07.12.2013 04:20 -1,8 C 83 % 1024,3 hPa 0,0 l/m 0,0 km/h (0 Bft) S 180 -4,3 C -1,6 C 0,0 km/h (0 Bft)
07.12.2013 04:25 -1,8 C 83 % 1024,6 hPa 0,0 l/m 0,0 km/h (0 Bft) S 180 -4,3 C -1,6 C 0,0 km/h (0 Bft)
07.12.2013 04:30 -1,9 C 83 % 1024,6 hPa 0,0 l/m 0,0 km/h (0 Bft) S 180 -4,4 C -1,6 C 0,0 km/h (0 Bft)
07.12.2013 04:35 -2,0 C 83 % 1024,6 hPa 0,0 l/m 0,0 km/h (0 Bft) S 180 -4,5 C -1,6 C 0,0 km/h (0 Bft)
07.12.2013 04:40 -1,9 C 82 % 1024,6 hPa 0,0 l/m 0,0 km/h (0 Bft) S 180 -4,6 C -1,6 C 0,0 km/h (0 Bft)
07.12.2013 04:45 -1,9 C 82 % 1024,7 hPa 0,0 l/m 0,0 km/h (0 Bft) S 180 -4,6 C -1,6 C 0,0 km/h (0 Bft)
07.12.2013 04:50 -1,9 C 81 % 1024,7 hPa 0,0 l/m 0,0 km/h (0 Bft) S 180 -4,7 C -1,6 C 0,0 km/h (0 Bft)
07.12.2013 04:55 -1,9 C 81 % 1024,7 hPa 0,0 l/m 0,0 km/h (0 Bft) S 180 -4,7 C -1,6 C 0,0 km/h (0 Bft)
07.12.2013 05:00 -1,9 C 80 % 1024,7 hPa 0,0 l/m 0,0 km/h (0 Bft) S 180 -4,9 C -1,6 C 0,0 km/h (0 Bft)
07.12.2013 05:05 -1,8 C 79 % 1024,6 hPa 0,0 l/m 0,0 km/h (0 Bft) S 180 -4,9 C -1,6 C 0,0 km/h (0 Bft)
07.12.2013 05:10 -1,8 C 79 % 1024,6 hPa 0,0 l/m 0,0 km/h (0 Bft) S 180 -4,9 C -1,6 C 0,0 km/h (0 Bft)
07.12.2013 05:15 -1,8 C 79 % 1024,6 hPa 0,0 l/m 0,0 km/h (0 Bft) S 180 -4,9 C -1,6 C 0,0 km/h (0 Bft)
07.12.2013 05:20 -1,7 C 78 % 1024,6 hPa 0,0 l/m 0,0 km/h (0 Bft) S 180 -5,0 C -1,6 C 0,0 km/h (0 Bft)
07.12.2013 05:25 -1,7 C 78 % 1025,1 hPa 0,0 l/m 0,0 km/h (0 Bft) S 180 -5,0 C -1,6 C 0,0 km/h (0 Bft)
07.12.2013 05:30 -1,7 C 78 % 1025,1 hPa 0,0 l/m 0,0 km/h (0 Bft) S 180 -5,0 C -1,6 C 0,0 km/h (0 Bft)
07.12.2013 05:35 -1,7 C 77 % 1025,1 hPa 0,0 l/m 0,0 km/h (0 Bft) S 180 -5,2 C -1,6 C 0,0 km/h (0 Bft)
07.12.2013 05:40 -1,8 C 77 % 1025,1 hPa 0,0 l/m 0,0 km/h (0 Bft) S 180 -5,3 C -1,6 C 0,0 km/h (0 Bft)
07.12.2013 05:45 -2,1 C 77 % 1026,2 hPa 0,0 l/m 0,0 km/h (0 Bft) S 180 -5,6 C -1,6 C 0,0 km/h (0 Bft)
07.12.2013 05:50 -2,2 C 77 % 1026,2 hPa 0,0 l/m 0,0 km/h (0 Bft) S 180 -5,7 C -1,6 C 0,0 km/h (0 Bft)
07.12.2013 05:55 -2,1 C 77 % 1026,2 hPa 0,0 l/m 0,0 km/h (0 Bft) S 180 -5,6 C -1,6 C 0,0 km/h (0 Bft)
07.12.2013 06:00 -2,0 C 76 % 1026,2 hPa 0,0 l/m 0,0 km/h (0 Bft) S 180 -5,6 C -1,6 C 0,0 km/h (0 Bft)
07.12.2013 06:05 -2,1 C 76 % 1026,8 hPa 0,0 l/m 0,0 km/h (0 Bft) S 180 -5,7 C -1,6 C 0,0 km/h (0 Bft)
07.12.2013 06:10 -2,2 C 76 % 1026,8 hPa 0,0 l/m 0,0 km/h (0 Bft) S 180 -5,8 C -1,6 C 0,0 km/h (0 Bft)
07.12.2013 06:15 -2,1 C 75 % 1026,8 hPa 0,0 l/m 0,0 km/h (0 Bft) S 180 -5,9 C -1,6 C 0,0 km/h (0 Bft)
07.12.2013 06:20 -2,3 C 75 % 1026,8 hPa 0,0 l/m 0,0 km/h (0 Bft) S 180 -6,1 C -1,6 C 0,0 km/h (0 Bft)
07.12.2013 06:25 -2,2 C 75 % 1027,0 hPa 0,0 l/m 0,0 km/h (0 Bft) S 180 -6,0 C -1,6 C 0,0 km/h (0 Bft)
07.12.2013 06:30 -1,9 C 74 % 1027,0 hPa 0,0 l/m 0,0 km/h (0 Bft) S 180 -5,9 C -1,6 C 0,0 km/h (0 Bft)
07.12.2013 06:35 -2,0 C 73 % 1027,0 hPa 0,0 l/m 0,0 km/h (0 Bft) S 180 -6,2 C -1,6 C 0,0 km/h (0 Bft)
07.12.2013 06:40 -2,1 C 73 % 1027,0 hPa 0,0 l/m 0,0 km/h (0 Bft) S 180 -6,3 C -1,6 C 0,0 km/h (0 Bft)
07.12.2013 06:45 -2,3 C 73 % 1027,3 hPa 0,0 l/m 0,0 km/h (0 Bft) S 180 -6,5 C -1,6 C 0,0 km/h (0 Bft)
07.12.2013 06:50 -2,1 C 73 % 1027,3 hPa 0,0 l/m 0,0 km/h (0 Bft) S 180 -6,3 C -1,6 C 0,0 km/h (0 Bft)
07.12.2013 06:55 -1,9 C 73 % 1027,3 hPa 0,0 l/m 0,0 km/h (0 Bft) S 180 -6,1 C -1,6 C 0,0 km/h (0 Bft)
07.12.2013 07:00 -1,9 C 72 % 1027,3 hPa 0,0 l/m 0,0 km/h (0 Bft) S 180 -6,3 C -1,6 C 0,0 km/h (0 Bft)
07.12.2013 07:05 -1,9 C 72 % 1027,4 hPa 0,0 l/m 0,0 km/h (0 Bft) S 180 -6,3 C -1,6 C 0,0 km/h (0 Bft)
07.12.2013 07:10 -2,1 C 72 % 1027,4 hPa 0,0 l/m 0,0 km/h (0 Bft) S 180 -6,5 C -1,6 C 0,0 km/h (0 Bft)
07.12.2013 07:15 -1,9 C 73 % 1027,4 hPa 0,0 l/m 0,0 km/h (0 Bft) S 180 -6,1 C -1,6 C 0,0 km/h (0 Bft)
07.12.2013 07:20 -1,9 C 72 % 1027,4 hPa 0,0 l/m 0,0 km/h (0 Bft) S 180 -6,3 C -1,6 C 0,0 km/h (0 Bft)
07.12.2013 07:25 -1,8 C 72 % 1027,4 hPa 0,0 l/m 0,0 km/h (0 Bft) S 180 -6,2 C -1,6 C 0,0 km/h (0 Bft)
07.12.2013 07:30 -1,9 C 72 % 1027,4 hPa 0,0 l/m 0,0 km/h (0 Bft) S 180 -6,3 C -1,6 C 0,0 km/h (0 Bft)
07.12.2013 07:35 -1,8 C 72 % 1027,4 hPa 0,0 l/m 0,0 km/h (0 Bft) S 180 -6,2 C -1,6 C 0,0 km/h (0 Bft)
07.12.2013 07:40 -1,9 C 72 % 1027,4 hPa 0,0 l/m 0,0 km/h (0 Bft) S 180 -6,3 C -1,6 C 0,0 km/h (0 Bft)
07.12.2013 07:45 -1,8 C 72 % 1027,2 hPa 0,0 l/m 0,0 km/h (0 Bft) S 180 -6,2 C -1,6 C 0,0 km/h (0 Bft)
07.12.2013 07:50 -1,7 C 71 % 1027,2 hPa 0,0 l/m 0,0 km/h (0 Bft) S 180 -6,2 C -1,6 C 0,0 km/h (0 Bft)
07.12.2013 07:55 -1,7 C 71 % 1027,2 hPa 0,0 l/m 0,0 km/h (0 Bft) S 180 -6,2 C -1,6 C 0,0 km/h (0 Bft)
07.12.2013 08:00 -1,7 C 71 % 1027,2 hPa 0,0 l/m 0,0 km/h (0 Bft) S 180 -6,2 C -1,6 C 0,0 km/h (0 Bft)
07.12.2013 08:05 -1,7 C 71 % 1027,4 hPa 0,0 l/m 0,0 km/h (0 Bft) S 180 -6,2 C -1,6 C 0,0 km/h (0 Bft)
07.12.2013 08:10 -1,6 C 70 % 1027,4 hPa 0,0 l/m 0,0 km/h (0 Bft) S 180 -6,3 C -1,6 C 0,0 km/h (0 Bft)
07.12.2013 08:15 -1,6 C 70 % 1027,4 hPa 0,0 l/m 0,0 km/h (0 Bft) S 180 -6,3 C -1,6 C 0,0 km/h (0 Bft)
07.12.2013 08:20 -1,5 C 69 % 1027,4 hPa 0,0 l/m 0,0 km/h (0 Bft) S 180 -6,4 C -1,6 C 0,0 km/h (0 Bft)
07.12.2013 08:25 -1,6 C 69 % 1027,5 hPa 0,0 l/m 0,0 km/h (0 Bft) S 180 -6,5 C -1,6 C 0,0 km/h (0 Bft)
07.12.2013 08:30 -1,6 C 68 % 1027,5 hPa 0,0 l/m 0,0 km/h (0 Bft) S 180 -6,7 C -1,6 C 0,0 km/h (0 Bft)
07.12.2013 08:34 -1,5 C 68 % 1027,5 hPa 0,0 l/m 0,0 km/h (0 Bft) S 180 -6,6 C -1,6 C 0,0 km/h (0 Bft)
07.12.2013 08:35 -1,4 C 67 % 1027,5 hPa 0,0 l/m 0,0 km/h (0 Bft) S 180 -6,7 C -1,6 C 0,0 km/h (0 Bft)
07.12.2013 08:40 -1,4 C 67 % 1027,7 hPa 0,0 l/m 0,0 km/h (0 Bft) S 180 -6,7 C -1,6 C 0,0 km/h (0 Bft)
07.12.2013 08:45 -1,3 C 66 % 1027,7 hPa 0,0 l/m 0,0 km/h (0 Bft) S 180 -6,8 C -1,6 C 0,0 km/h (0 Bft)
07.12.2013 08:50 -1,3 C 66 % 1027,7 hPa 0,0 l/m 0,0 km/h (0 Bft) S 180 -6,8 C -1,6 C 0,0 km/h (0 Bft)
07.12.2013 08:55 -1,2 C 65 % 1027,7 hPa 0,0 l/m 0,0 km/h (0 Bft) S 180 -6,9 C -1,6 C 0,0 km/h (0 Bft)
07.12.2013 09:00 -1,1 C 65 % 1027,7 hPa 0,0 l/m 0,0 km/h (0 Bft) S 180 -6,8 C -1,6 C 0,0 km/h (0 Bft)
07.12.2013 09:05 -1,1 C 65 % 1027,8 hPa 0,0 l/m 0,0 km/h (0 Bft) S 180 -6,8 C -1,6 C 0,0 km/h (0 Bft)
07.12.2013 09:10 -1,0 C 64 % 1027,8 hPa 0,0 l/m 0,0 km/h (0 Bft) S 180 -6,9 C -1,6 C 0,0 km/h (0 Bft)
07.12.2013 09:15 -0,9 C 64 % 1027,8 hPa 0,0 l/m 0,0 km/h (0 Bft) S 180 -6,8 C -1,6 C 0,0 km/h (0 Bft)
07.12.2013 09:20 -0,9 C 64 % 1027,8 hPa 0,0 l/m 0,0 km/h (0 Bft) S 180 -6,8 C -1,6 C 0,0 km/h (0 Bft)
07.12.2013 09:25 -0,8 C 63 % 1028,0 hPa 0,0 l/m 0,0 km/h (0 Bft) S 180 -6,9 C -1,6 C 0,0 km/h (0 Bft)
07.12.2013 09:30 -0,8 C 62 % 1028,0 hPa 0,0 l/m 0,0 km/h (0 Bft) S 180 -7,1 C -1,6 C 0,0 km/h (0 Bft)
07.12.2013 09:35 -0,7 C 61 % 1028,0 hPa 0,0 l/m 0,0 km/h (0 Bft) S 180 -7,3 C -1,6 C 0,0 km/h (0 Bft)
07.12.2013 09:40 -0,7 C 61 % 1028,0 hPa 0,0 l/m 0,0 km/h (0 Bft) S 180 -7,3 C -1,6 C 0,0 km/h (0 Bft)
07.12.2013 09:45 -0,7 C 60 % 1027,9 hPa 0,0 l/m 0,0 km/h (0 Bft) S 180 -7,5 C -1,6 C 0,0 km/h (0 Bft)
07.12.2013 09:50 -0,5 C 59 % 1027,9 hPa 0,0 l/m 0,0 km/h (0 Bft) S 180 -7,5 C -1,6 C 0,0 km/h (0 Bft)
07.12.2013 09:55 -0,5 C 60 % 1027,9 hPa 0,0 l/m 0,0 km/h (0 Bft) S 180 -7,3 C -1,6 C 0,0 km/h (0 Bft)
07.12.2013 10:00 -0,5 C 60 % 1027,9 hPa 0,0 l/m 0,0 km/h (0 Bft) S 180 -7,3 C -1,6 C 0,0 km/h (0 Bft)
07.12.2013 10:05 -0,5 C 60 % 1027,8 hPa 0,0 l/m 0,0 km/h (0 Bft) S 180 -7,3 C -1,6 C 0,0 km/h (0 Bft)
07.12.2013 10:10 -0,4 C 59 % 1027,8 hPa 0,0 l/m 0,0 km/h (0 Bft) S 180 -7,4 C -1,6 C 0,0 km/h (0 Bft)
07.12.2013 10:15 -0,3 C 59 % 1027,8 hPa 0,0 l/m 0,0 km/h (0 Bft) S 180 -7,3 C -1,6 C 0,0 km/h (0 Bft)
07.12.2013 10:20 -0,6 C 59 % 1027,8 hPa 0,0 l/m 0,0 km/h (0 Bft) S 180 -7,6 C -1,6 C 0,0 km/h (0 Bft)
07.12.2013 10:25 -0,7 C 59 % 1027,9 hPa 0,0 l/m 0,0 km/h (0 Bft) S 180 -7,7 C -1,6 C 0,0 km/h (0 Bft)
07.12.2013 10:30 -0,6 C 59 % 1027,9 hPa 0,0 l/m 0,0 km/h (0 Bft) S 180 -7,6 C -1,6 C 0,0 km/h (0 Bft)
07.12.2013 10:35 -0,4 C 59 % 1027,9 hPa 0,0 l/m 0,0 km/h (0 Bft) S 180 -7,4 C -1,6 C 0,0 km/h (0 Bft)
07.12.2013 10:40 0,3 C 59 % 1027,9 hPa 0,0 l/m 0,0 km/h (0 Bft) S 180 -6,8 C -1,6 C 0,0 km/h (0 Bft)
07.12.2013 10:45 0,7 C 59 % 1027,8 hPa 0,0 l/m 0,0 km/h (0 Bft) S 180 -6,4 C -1,6 C 0,0 km/h (0 Bft)
07.12.2013 10:50 1,0 C 58 % 1027,8 hPa 0,0 l/m 0,0 km/h (0 Bft) S 180 -6,3 C -1,6 C 0,0 km/h (0 Bft)
07.12.2013 10:55 1,4 C 58 % 1027,8 hPa 0,0 l/m 0,0 km/h (0 Bft) S 180 -5,9 C -1,6 C 0,0 km/h (0 Bft)
07.12.2013 11:00 1,6 C 57 % 1027,8 hPa 0,0 l/m 0,0 km/h (0 Bft) S 180 -6,0 C -1,6 C 0,0 km/h (0 Bft)
07.12.2013 11:05 1,6 C 57 % 1027,8 hPa 0,0 l/m 0,0 km/h (0 Bft) S 180 -6,0 C -1,6 C 0,0 km/h (0 Bft)
07.12.2013 11:10 1,0 C 57 % 1027,8 hPa 0,0 l/m 0,0 km/h (0 Bft) S 180 -6,5 C -1,6 C 0,0 km/h (0 Bft)
07.12.2013 11:15 0,6 C 57 % 1027,8 hPa 0,0 l/m 0,0 km/h (0 Bft) S 180 -6,9 C -1,6 C 0,0 km/h (0 Bft)
07.12.2013 11:20 1,4 C 58 % 1027,8 hPa 0,0 l/m 0,0 km/h (0 Bft) S 180 -5,9 C -1,6 C 0,0 km/h (0 Bft)
07.12.2013 11:25 2,1 C 56 % 1027,6 hPa 0,0 l/m 0,0 km/h (0 Bft) S 180 -5,7 C -1,6 C 0,0 km/h (0 Bft)
07.12.2013 11:30 2,4 C 56 % 1027,6 hPa 0,0 l/m 0,0 km/h (0 Bft) S 180 -5,5 C -1,6 C 0,0 km/h (0 Bft)
07.12.2013 11:35 2,5 C 56 % 1027,6 hPa 0,0 l/m 0,0 km/h (0 Bft) S 180 -5,4 C -1,6 C 0,0 km/h (0 Bft)
07.12.2013 11:40 2,7 C 55 % 1027,6 hPa 0,0 l/m 0,0 km/h (0 Bft) S 180 -5,4 C -1,6 C 0,0 km/h (0 Bft)
07.12.2013 11:45 2,7 C 56 % 1027,2 hPa 0,0 l/m 0,0 km/h (0 Bft) S 180 -5,2 C -1,6 C 0,0 km/h (0 Bft)
07.12.2013 11:50 2,6 C 54 % 1027,2 hPa 0,0 l/m 0,0 km/h (0 Bft) S 180 -5,8 C -1,6 C 0,0 km/h (0 Bft)
07.12.2013 11:55 2,5 C 55 % 1027,2 hPa 0,0 l/m 0,0 km/h (0 Bft) S 180 -5,6 C -1,6 C 0,0 km/h (0 Bft)
07.12.2013 12:00 2,5 C 54 % 1027,2 hPa 0,0 l/m 0,0 km/h (0 Bft) S 180 -5,8 C -1,6 C 0,0 km/h (0 Bft)
07.12.2013 12:05 2,6 C 54 % 1027,2 hPa 0,0 l/m 0,0 km/h (0 Bft) S 180 -5,8 C -1,6 C 0,0 km/h (0 Bft)
07.12.2013 12:10 2,5 C 54 % 1027,2 hPa 0,0 l/m 0,0 km/h (0 Bft) S 180 -5,8 C -1,6 C 0,0 km/h (0 Bft)
07.12.2013 12:15 2,5 C 54 % 1027,2 hPa 0,0 l/m 0,0 km/h (0 Bft) S 180 -5,8 C -1,6 C 0,0 km/h (0 Bft)
07.12.2013 12:20 1,4 C 55 % 1027,2 hPa 0,0 l/m 0,0 km/h (0 Bft) S 180 -6,6 C -1,6 C 0,0 km/h (0 Bft)
07.12.2013 12:25 1,6 C 55 % 1027,2 hPa 0,0 l/m 0,0 km/h (0 Bft) S 180 -6,4 C -1,6 C 0,0 km/h (0 Bft)
07.12.2013 12:30 1,8 C 55 % 1027,2 hPa 0,0 l/m 0,0 km/h (0 Bft) S 180 -6,3 C -1,6 C 0,0 km/h (0 Bft)
07.12.2013 12:35 1,7 C 55 % 1027,2 hPa 0,0 l/m 0,0 km/h (0 Bft) S 180 -6,4 C -1,6 C 0,0 km/h (0 Bft)
07.12.2013 12:40 2,4 C 55 % 1027,2 hPa 0,0 l/m 0,0 km/h (0 Bft) S 180 -5,7 C -1,6 C 0,0 km/h (0 Bft)
07.12.2013 12:45 2,8 C 55 % 1027,0 hPa 0,0 l/m 0,0 km/h (0 Bft) S 180 -5,3 C -1,6 C 0,0 km/h (0 Bft)
07.12.2013 12:50 3,1 C 53 % 1027,0 hPa 0,0 l/m 0,0 km/h (0 Bft) S 180 -5,5 C -1,6 C 0,0 km/h (0 Bft)
07.12.2013 12:55 3,3 C 53 % 1027,0 hPa 0,0 l/m 0,0 km/h (0 Bft) S 180 -5,3 C -1,6 C 0,0 km/h (0 Bft)
07.12.2013 13:00 3,3 C 52 % 1027,0 hPa 0,0 l/m 0,0 km/h (0 Bft) S 180 -5,6 C -1,6 C 0,0 km/h (0 Bft)
07.12.2013 13:05 3,3 C 53 % 1026,8 hPa 0,0 l/m 0,0 km/h (0 Bft) S 180 -5,3 C -1,6 C 0,0 km/h (0 Bft)
07.12.2013 13:10 3,3 C 53 % 1026,8 hPa 0,0 l/m 0,0 km/h (0 Bft) S 180 -5,3 C -1,6 C 0,0 km/h (0 Bft)
07.12.2013 13:15 3,4 C 53 % 1026,8 hPa 0,0 l/m 0,0 km/h (0 Bft) S 180 -5,3 C -1,6 C 0,0 km/h (0 Bft)
07.12.2013 13:20 3,4 C 53 % 1026,8 hPa 0,0 l/m 0,0 km/h (0 Bft) S 180 -5,3 C -1,6 C 0,0 km/h (0 Bft)
07.12.2013 13:25 3,4 C 53 % 1026,7 hPa 0,0 l/m 0,0 km/h (0 Bft) S 180 -5,3 C -1,6 C 0,0 km/h (0 Bft)
07.12.2013 13:30 3,5 C 53 % 1026,7 hPa 0,0 l/m 0,0 km/h (0 Bft) S 180 -5,2 C -1,6 C 0,0 km/h (0 Bft)
07.12.2013 13:35 3,5 C 53 % 1026,7 hPa 0,0 l/m 0,0 km/h (0 Bft) S 180 -5,2 C -1,6 C 0,0 km/h (0 Bft)
07.12.2013 13:40 3,5 C 52 % 1026,7 hPa 0,0 l/m 0,0 km/h (0 Bft) S 180 -5,4 C -1,6 C 0,0 km/h (0 Bft)
07.12.2013 13:45 3,5 C 53 % 1026,5 hPa 0,0 l/m 0,0 km/h (0 Bft) S 180 -5,2 C -1,6 C 0,0 km/h (0 Bft)
07.12.2013 13:50 3,6 C 53 % 1026,5 hPa 0,0 l/m 0,0 km/h (0 Bft) S 180 -5,1 C -1,6 C 0,0 km/h (0 Bft)
07.12.2013 13:55 3,4 C 52 % 1026,5 hPa 0,0 l/m 0,0 km/h (0 Bft) S 180 -5,5 C -1,6 C 0,0 km/h (0 Bft)
07.12.2013 14:00 3,3 C 52 % 1026,5 hPa 0,0 l/m 0,0 km/h (0 Bft) S 180 -5,6 C -1,6 C 0,0 km/h (0 Bft)
07.12.2013 14:05 3,3 C 53 % 1026,4 hPa 0,0 l/m 8,9 km/h (2 Bft) S-SO 157 -5,3 C -0,7 C 11,1 km/h (2 Bft)
07.12.2013 14:10 3,3 C 53 % 1026,4 hPa 0,0 l/m 8,4 km/h (2 Bft) S-SO 157 -5,3 C -0,2 C 19,2 km/h (3 Bft)
07.12.2013 14:15 3,4 C 53 % 1026,4 hPa 0,0 l/m 7,9 km/h (2 Bft) S 180 -5,3 C 0,4 C 10,1 km/h (2 Bft)
07.12.2013 14:20 3,4 C 53 % 1026,4 hPa 0,0 l/m 7,4 km/h (2 Bft) S 180 -5,3 C 1,1 C 6,8 km/h (2 Bft)
07.12.2013 14:25 3,4 C 53 % 1026,6 hPa 0,0 l/m 7,4 km/h (2 Bft) S-SO 157 -5,3 C 1,1 C 10,9 km/h (2 Bft)
07.12.2013 14:30 3,3 C 53 % 1026,6 hPa 0,0 l/m 7,4 km/h (2 Bft) S 180 -5,3 C 1,0 C 10,1 km/h (2 Bft)
07.12.2013 14:33 3,3 C 54 % 1026,6 hPa 0,0 l/m 7,4 km/h (2 Bft) SO 135 -5,1 C 1,0 C 8,7 km/h (2 Bft)
07.12.2013 14:35 3,2 C 53 % 1026,6 hPa 0,0 l/m 7,6 km/h (2 Bft) S 180 -5,4 C 0,7 C 8,0 km/h (2 Bft)
07.12.2013 14:40 3,2 C 53 % 1026,6 hPa 0,0 l/m 7,4 km/h (2 Bft) S 180 -5,4 C 1,0 C 10,6 km/h (2 Bft)
07.12.2013 14:45 3,2 C 54 % 1026,6 hPa 0,0 l/m 7,1 km/h (2 Bft) S-SO 157 -5,2 C 1,2 C 9,8 km/h (2 Bft)
07.12.2013 14:50 3,2 C 54 % 1026,6 hPa 0,0 l/m 7,1 km/h (2 Bft) S-SO 157 -5,2 C 1,2 C 9,8 km/h (2 Bft)
07.12.2013 14:55 3,2 C 55 % 1026,6 hPa 0,0 l/m 7,2 km/h (2 Bft) SO 135 -5,0 C 1,1 C 8,2 km/h (2 Bft)
07.12.2013 15:00 3,1 C 54 % 1026,6 hPa 0,0 l/m 7,1 km/h (2 Bft) S 180 -5,3 C 1,2 C 8,7 km/h (2 Bft)
07.12.2013 15:05 3,1 C 54 % 1026,5 hPa 0,0 l/m 6,8 km/h (2 Bft) SO 135 -5,3 C 1,6 C 6,1 km/h (2 Bft)
07.12.2013 15:10 3,0 C 55 % 1026,5 hPa 0,0 l/m 6,3 km/h (2 Bft) S 180 -5,1 C 2,0 C 7,1 km/h (2 Bft)
07.12.2013 15:15 2,9 C 56 % 1026,5 hPa 0,0 l/m 6,4 km/h (2 Bft) S 180 -5,0 C 1,8 C 6,9 km/h (2 Bft)
07.12.2013 15:20 2,9 C 56 % 1026,5 hPa 0,0 l/m 6,8 km/h (2 Bft) SO 135 -5,0 C 1,3 C 9,5 km/h (2 Bft)
07.12.2013 15:25 2,8 C 56 % 1026,6 hPa 0,0 l/m 6,3 km/h (2 Bft) SO 135 -5,1 C 1,8 C 6,1 km/h (2 Bft)
07.12.2013 15:30 2,7 C 57 % 1026,6 hPa 0,0 l/m 6,8 km/h (2 Bft) S 180 -4,9 C 1,0 C 6,8 km/h (2 Bft)
07.12.2013 15:35 2,6 C 57 % 1026,6 hPa 0,0 l/m 6,3 km/h (2 Bft) S-SO 157 -5,0 C 1,8 C 7,4 km/h (2 Bft)
07.12.2013 15:40 2,6 C 57 % 1026,6 hPa 0,0 l/m 6,4 km/h (2 Bft) S 180 -5,0 C 1,6 C 6,9 km/h (2 Bft)
07.12.2013 15:45 2,6 C 57 % 1026,7 hPa 0,0 l/m 7,2 km/h (2 Bft) S 180 -5,0 C 0,4 C 8,7 km/h (2 Bft)
07.12.2013 15:50 2,5 C 58 % 1026,7 hPa 0,0 l/m 7,4 km/h (2 Bft) S-SO 157 -4,9 C 0,2 C 7,4 km/h (2 Bft)
07.12.2013 15:55 2,4 C 58 % 1026,7 hPa 0,0 l/m 6,9 km/h (2 Bft) S 180 -5,0 C 0,7 C 7,1 km/h (2 Bft)
07.12.2013 16:00 2,3 C 58 % 1026,7 hPa 0,0 l/m 6,6 km/h (2 Bft) S-SO 157 -5,1 C 1,0 C 6,8 km/h (2 Bft)
07.12.2013 16:05 2,3 C 58 % 1026,7 hPa 0,0 l/m 6,9 km/h (2 Bft) S-SO 157 -5,1 C 0,4 C 9,2 km/h (2 Bft)
07.12.2013 16:10 2,1 C 59 % 1026,7 hPa 0,0 l/m 6,8 km/h (2 Bft) SO 135 -5,1 C 0,5 C 7,4 km/h (2 Bft)
07.12.2013 16:15 2,1 C 58 % 1026,7 hPa 0,0 l/m 6,4 km/h (2 Bft) SO 135 -5,3 C 0,9 C 6,3 km/h (2 Bft)
07.12.2013 16:20 2,2 C 58 % 1026,7 hPa 0,0 l/m 5,5 km/h (1 Bft) O-SO 112 -5,2 C 1,1 C 5,0 km/h (1 Bft)
07.12.2013 16:25 2,3 C 58 % 1026,7 hPa 0,0 l/m 5,3 km/h (1 Bft) S 180 -5,1 C 1,2 C 4,8 km/h (1 Bft)
07.12.2013 16:30 2,1 C 58 % 1026,7 hPa 0,0 l/m 5,3 km/h (1 Bft) S-SO 157 -5,3 C 1,1 C 5,1 km/h (1 Bft)
07.12.2013 16:35 2,1 C 58 % 1026,7 hPa 0,0 l/m 5,1 km/h (1 Bft) SO 135 -5,3 C 1,2 C 7,1 km/h (2 Bft)
07.12.2013 16:40 1,8 C 59 % 1026,7 hPa 0,0 l/m 5,1 km/h (1 Bft) SO 135 -5,3 C 1,1 C 5,5 km/h (1 Bft)
07.12.2013 16:45 1,7 C 59 % 1026,5 hPa 0,0 l/m 4,8 km/h (1 Bft) S 180 -5,4 C 1,1 C 5,1 km/h (1 Bft)
07.12.2013 16:50 1,5 C 61 % 1026,5 hPa 0,0 l/m 4,3 km/h (1 Bft) S-SO 157 -5,2 C 1,2 C 6,0 km/h (2 Bft)
07.12.2013 16:55 1,6 C 61 % 1026,5 hPa 0,0 l/m 4,3 km/h (1 Bft) SO 135 -5,1 C 1,1 C 4,7 km/h (1 Bft)
07.12.2013 17:00 2,1 C 59 % 1026,5 hPa 0,0 l/m 4,7 km/h (1 Bft) O-SO 112 -5,1 C 0,9 C 6,1 km/h (2 Bft)
07.12.2013 17:05 2,3 C 58 % 1026,6 hPa 0,0 l/m 4,8 km/h (1 Bft) O-SO 112 -5,1 C 1,0 C 6,4 km/h (2 Bft)
07.12.2013 17:10 1,9 C 59 % 1026,6 hPa 0,0 l/m 5,5 km/h (1 Bft) S 180 -5,2 C 0,9 C 4,5 km/h (1 Bft)
07.12.2013 17:15 1,7 C 59 % 1026,6 hPa 0,0 l/m 5,0 km/h (1 Bft) SO 135 -5,4 C 1,0 C 4,8 km/h (1 Bft)
07.12.2013 17:20 1,8 C 60 % 1026,6 hPa 0,0 l/m 3,7 km/h (1 Bft) SO 135 -5,1 C 1,4 C 4,8 km/h (1 Bft)
07.12.2013 17:25 1,6 C 61 % 1026,7 hPa 0,0 l/m 3,4 km/h (1 Bft) SO 135 -5,1 C 1,6 C 2,4 km/h (1 Bft)
07.12.2013 17:30 1,6 C 62 % 1026,7 hPa 0,0 l/m 3,1 km/h (1 Bft) S 180 -4,9 C 1,6 C 3,1 km/h (1 Bft)
07.12.2013 17:35 1,3 C 62 % 1026,7 hPa 0,0 l/m 2,3 km/h (1 Bft) S 180 -5,2 C 1,8 C 2,7 km/h (1 Bft)
07.12.2013 17:40 1,4 C 63 % 1026,7 hPa 0,0 l/m 2,6 km/h (1 Bft) O-SO 112 -4,9 C 1,7 C 3,4 km/h (1 Bft)
07.12.2013 17:45 1,3 C 63 % 1026,5 hPa 0,0 l/m 3,4 km/h (1 Bft) S-SO 157 -5,0 C 1,2 C 4,7 km/h (1 Bft)
07.12.2013 17:50 1,6 C 62 % 1026,5 hPa 0,0 l/m 4,3 km/h (1 Bft) SO 135 -4,9 C 0,7 C 4,8 km/h (1 Bft)
07.12.2013 17:55 1,6 C 62 % 1026,5 hPa 0,0 l/m 4,8 km/h (1 Bft) S-SO 157 -4,9 C 0,6 C 7,9 km/h (2 Bft)
07.12.2013 18:00 1,4 C 63 % 1026,5 hPa 0,0 l/m 4,7 km/h (1 Bft) S 180 -4,9 C 0,9 C 3,5 km/h (1 Bft)
07.12.2013 18:05 1,4 C 64 % 1026,6 hPa 0,0 l/m 5,0 km/h (1 Bft) S 180 -4,6 C 0,7 C 6,0 km/h (2 Bft)
07.12.2013 18:10 1,2 C 64 % 1026,6 hPa 0,0 l/m 4,8 km/h (1 Bft) S 180 -4,8 C 0,7 C 5,8 km/h (2 Bft)
07.12.2013 18:15 1,4 C 64 % 1026,6 hPa 0,0 l/m 4,2 km/h (1 Bft) O 90 -4,6 C 0,9 C 4,2 km/h (1 Bft)
07.12.2013 18:20 1,6 C 64 % 1026,6 hPa 0,0 l/m 3,7 km/h (1 Bft) O-SO 112 -4,5 C 1,1 C 4,2 km/h (1 Bft)
07.12.2013 18:25 1,5 C 63 % 1026,6 hPa 0,0 l/m 3,5 km/h (1 Bft) O 90 -4,8 C 1,2 C 2,7 km/h (1 Bft)
07.12.2013 18:30 1,3 C 64 % 1026,6 hPa 0,0 l/m 3,2 km/h (1 Bft) S-SO 157 -4,7 C 1,3 C 4,2 km/h (1 Bft)
07.12.2013 18:35 1,4 C 64 % 1026,6 hPa 0,0 l/m 3,2 km/h (1 Bft) O 90 -4,6 C 1,3 C 5,6 km/h (1 Bft)
07.12.2013 18:40 1,4 C 64 % 1026,6 hPa 0,0 l/m 4,0 km/h (1 Bft) S-SO 157 -4,6 C 0,8 C 4,0 km/h (1 Bft)
07.12.2013 18:45 1,3 C 64 % 1026,6 hPa 0,0 l/m 4,7 km/h (1 Bft) S-SO 157 -4,7 C 0,5 C 5,5 km/h (1 Bft)
07.12.2013 18:50 1,1 C 65 % 1026,6 hPa 0,0 l/m 4,8 km/h (1 Bft) S-SO 157 -4,7 C 0,3 C 7,1 km/h (2 Bft)
07.12.2013 18:55 1,1 C 66 % 1026,6 hPa 0,0 l/m 5,3 km/h (1 Bft) S-SO 157 -4,5 C 0,2 C 5,8 km/h (2 Bft)
07.12.2013 19:00 1,2 C 65 % 1026,6 hPa 0,0 l/m 5,3 km/h (1 Bft) S 180 -4,6 C 0,1 C 6,3 km/h (2 Bft)
07.12.2013 19:05 1,3 C 65 % 1026,6 hPa 0,0 l/m 4,8 km/h (1 Bft) S 180 -4,5 C 0,3 C 6,6 km/h (2 Bft)
07.12.2013 19:10 1,4 C 64 % 1026,6 hPa 0,0 l/m 4,3 km/h (1 Bft) O-SO 112 -4,6 C 0,6 C 3,7 km/h (1 Bft)
07.12.2013 19:15 1,5 C 64 % 1026,6 hPa 0,0 l/m 5,0 km/h (1 Bft) SO 135 -4,6 C 0,2 C 6,4 km/h (2 Bft)
07.12.2013 19:20 1,4 C 64 % 1026,6 hPa 0,0 l/m 5,1 km/h (1 Bft) S 180 -4,6 C 0,2 C 7,6 km/h (2 Bft)
07.12.2013 19:25 1,3 C 65 % 1026,6 hPa 0,0 l/m 5,8 km/h (2 Bft) S-SO 157 -4,5 C 0,0 C 8,2 km/h (2 Bft)
07.12.2013 19:30 1,2 C 65 % 1026,6 hPa 0,0 l/m 6,9 km/h (2 Bft) S-SO 157 -4,6 C -0,8 C 6,9 km/h (2 Bft)
07.12.2013 19:35 1,2 C 65 % 1026,6 hPa 0,0 l/m 6,9 km/h (2 Bft) S-SO 157 -4,6 C -0,8 C 6,0 km/h (2 Bft)
07.12.2013 19:40 1,2 C 65 % 1026,6 hPa 0,0 l/m 6,3 km/h (2 Bft) SO 135 -4,6 C -0,2 C 6,1 km/h (2 Bft)
07.12.2013 19:45 1,2 C 65 % 1026,4 hPa 0,0 l/m 6,3 km/h (2 Bft) S 180 -4,6 C -0,2 C 7,2 km/h (2 Bft)
07.12.2013 19:50 1,2 C 65 % 1026,4 hPa 0,0 l/m 6,8 km/h (2 Bft) S-SO 157 -4,6 C -0,7 C 8,9 km/h (2 Bft)
07.12.2013 19:55 1,2 C 65 % 1026,4 hPa 0,0 l/m 6,8 km/h (2 Bft) S-SO 157 -4,6 C -0,7 C 8,2 km/h (2 Bft)
07.12.2013 20:00 1,2 C 65 % 1026,4 hPa 0,0 l/m 6,6 km/h (2 Bft) S 180 -4,6 C -0,5 C 7,7 km/h (2 Bft)
07.12.2013 20:05 1,2 C 64 % 1026,6 hPa 0,0 l/m 6,8 km/h (2 Bft) S 180 -4,8 C -0,7 C 10,1 km/h (2 Bft)
07.12.2013 20:10 1,3 C 64 % 1026,6 hPa 0,0 l/m 7,1 km/h (2 Bft) S-SO 157 -4,7 C -1,1 C 7,4 km/h (2 Bft)
07.12.2013 20:15 1,4 C 63 % 1026,6 hPa 0,0 l/m 7,2 km/h (2 Bft) O-SO 112 -4,9 C -1,2 C 6,4 km/h (2 Bft)
07.12.2013 20:20 1,3 C 63 % 1026,6 hPa 0,0 l/m 7,4 km/h (2 Bft) S 180 -5,0 C -1,4 C 9,7 km/h (2 Bft)
07.12.2013 20:25 1,4 C 63 % 1026,7 hPa 0,0 l/m 7,6 km/h (2 Bft) SW 225 -4,9 C -1,7 C 7,1 km/h (2 Bft)
07.12.2013 20:30 1,5 C 62 % 1026,7 hPa 0,0 l/m 6,8 km/h (2 Bft) S-SO 157 -5,0 C -0,7 C 7,4 km/h (2 Bft)
07.12.2013 20:33 1,5 C 62 % 1026,7 hPa 0,0 l/m 6,3 km/h (2 Bft) O-SO 112 -5,0 C -0,1 C 10,8 km/h (2 Bft)
07.12.2013 20:35 1,5 C 61 % 1026,7 hPa 0,0 l/m 6,6 km/h (2 Bft) SO 135 -5,2 C -0,4 C 5,6 km/h (1 Bft)
07.12.2013 20:40 1,5 C 61 % 1026,7 hPa 0,0 l/m 6,6 km/h (2 Bft) SO 135 -5,2 C -0,4 C 10,0 km/h (2 Bft)
07.12.2013 20:45 1,4 C 62 % 1026,7 hPa 0,0 l/m 7,2 km/h (2 Bft) S 180 -5,1 C -1,1 C 9,2 km/h (2 Bft)
07.12.2013 20:50 1,4 C 61 % 1026,7 hPa 0,0 l/m 7,7 km/h (2 Bft) S-SO 157 -5,3 C -1,8 C 9,5 km/h (2 Bft)
07.12.2013 20:55 1,4 C 61 % 1026,7 hPa 0,0 l/m 7,7 km/h (2 Bft) S-SO 157 -5,3 C -1,8 C 9,5 km/h (2 Bft)
07.12.2013 21:00 1,4 C 61 % 1026,7 hPa 0,0 l/m 7,7 km/h (2 Bft) O 90 -5,3 C -1,8 C 7,2 km/h (2 Bft)
07.12.2013 21:05 1,5 C 61 % 1026,6 hPa 0,0 l/m 7,7 km/h (2 Bft) S-SO 157 -5,2 C -2,0 C 8,4 km/h (2 Bft)
07.12.2013 21:10 1,2 C 61 % 1026,6 hPa 0,0 l/m 8,2 km/h (2 Bft) S 180 -5,5 C -2,6 C 11,9 km/h (2 Bft)
07.12.2013 21:15 1,2 C 61 % 1026,6 hPa 0,0 l/m 8,7 km/h (2 Bft) S-SO 157 -5,5 C -3,2 C 10,5 km/h (2 Bft)
07.12.2013 21:20 1,2 C 62 % 1026,6 hPa 0,0 l/m 8,2 km/h (2 Bft) S 180 -5,3 C -2,6 C 7,7 km/h (2 Bft)
07.12.2013 21:25 1,2 C 62 % 1026,7 hPa 0,0 l/m 7,9 km/h (2 Bft) SW 225 -5,3 C -2,3 C 5,8 km/h (2 Bft)
07.12.2013 21:30 1,2 C 62 % 1026,7 hPa 0,0 l/m 8,2 km/h (2 Bft) S 180 -5,3 C -2,6 C 7,9 km/h (2 Bft)
07.12.2013 21:35 1,1 C 62 % 1026,7 hPa 0,0 l/m 7,9 km/h (2 Bft) S 180 -5,3 C -2,3 C 9,2 km/h (2 Bft)
07.12.2013 21:40 1,1 C 62 % 1026,7 hPa 0,0 l/m 7,1 km/h (2 Bft) S-SO 157 -5,3 C -1,1 C 6,8 km/h (2 Bft)
07.12.2013 21:45 1,0 C 63 % 1026,8 hPa 0,0 l/m 6,6 km/h (2 Bft) S 180 -5,2 C -0,5 C 8,0 km/h (2 Bft)
07.12.2013 21:50 0,8 C 63 % 1026,8 hPa 0,0 l/m 6,3 km/h (2 Bft) S 180 -5,4 C -0,4 C 6,4 km/h (2 Bft)
07.12.2013 21:55 0,9 C 63 % 1026,8 hPa 0,0 l/m 6,0 km/h (2 Bft) S-SO 157 -5,3 C -0,4 C 7,2 km/h (2 Bft)
07.12.2013 22:00 0,8 C 63 % 1026,8 hPa 0,0 l/m 4,8 km/h (1 Bft) S 180 -5,4 C -0,3 C 7,6 km/h (2 Bft)
07.12.2013 22:05 0,8 C 64 % 1026,9 hPa 0,0 l/m 4,7 km/h (1 Bft) S-SO 157 -5,2 C -0,3 C 6,4 km/h (2 Bft)
07.12.2013 22:10 0,6 C 64 % 1026,9 hPa 0,0 l/m 5,1 km/h (1 Bft) SO 135 -5,4 C -0,7 C 4,2 km/h (1 Bft)
07.12.2013 22:15 0,5 C 64 % 1026,9 hPa 0,0 l/m 5,1 km/h (1 Bft) S-SO 157 -5,5 C -0,8 C 7,6 km/h (2 Bft)
07.12.2013 22:20 0,6 C 65 % 1026,9 hPa 0,0 l/m 5,0 km/h (1 Bft) O-SO 112 -5,2 C -0,8 C 5,1 km/h (1 Bft)
07.12.2013 22:25 0,9 C 64 % 1026,9 hPa 0,0 l/m 5,5 km/h (1 Bft) O-SO 112 -5,1 C -1,0 C 7,9 km/h (2 Bft)
07.12.2013 22:30 0,9 C 64 % 1026,9 hPa 0,0 l/m 5,0 km/h (1 Bft) SO 135 -5,1 C -0,8 C 6,4 km/h (2 Bft)
07.12.2013 22:35 0,9 C 64 % 1026,9 hPa 0,0 l/m 4,7 km/h (1 Bft) SO 135 -5,1 C -0,6 C 4,8 km/h (1 Bft)
07.12.2013 22:40 0,9 C 64 % 1026,9 hPa 0,0 l/m 5,1 km/h (1 Bft) SO 135 -5,1 C -0,8 C 4,3 km/h (1 Bft)
07.12.2013 22:45 0,8 C 64 % 1027,0 hPa 0,0 l/m 5,3 km/h (1 Bft) S 180 -5,2 C -0,9 C 7,6 km/h (2 Bft)
07.12.2013 22:50 0,6 C 64 % 1027,0 hPa 0,0 l/m 5,3 km/h (1 Bft) S-SO 157 -5,4 C -1,1 C 7,7 km/h (2 Bft)
07.12.2013 22:55 0,6 C 64 % 1027,0 hPa 0,0 l/m 5,3 km/h (1 Bft) O-SO 112 -5,4 C -1,2 C 6,4 km/h (2 Bft)
07.12.2013 23:00 0,5 C 64 % 1027,0 hPa 0,0 l/m 5,8 km/h (2 Bft) O-NO 67 -5,5 C -1,6 C 6,6 km/h (2 Bft)
07.12.2013 23:05 0,3 C 64 % 1026,9 hPa 0,0 l/m 5,5 km/h (1 Bft) O-SO 112 -5,7 C -1,7 C 4,7 km/h (1 Bft)
07.12.2013 23:10 0,4 C 64 % 1026,9 hPa 0,0 l/m 5,0 km/h (1 Bft) O 90 -5,6 C -1,8 C 6,3 km/h (2 Bft)
07.12.2013 23:15 0,3 C 64 % 1026,9 hPa 0,0 l/m 5,6 km/h (1 Bft) O-SO 112 -5,7 C -2,2 C 7,2 km/h (2 Bft)
07.12.2013 23:20 0,1 C 64 % 1026,9 hPa 0,0 l/m 6,4 km/h (2 Bft) SO 135 -5,9 C -2,5 C 8,7 km/h (2 Bft)
07.12.2013 23:25 0,1 C 65 % 1026,9 hPa 0,0 l/m 6,8 km/h (2 Bft) O-SO 112 -5,7 C -3,0 C 6,1 km/h (2 Bft)
07.12.2013 23:30 0,1 C 65 % 1026,9 hPa 0,0 l/m 6,3 km/h (2 Bft) O-SO 112 -5,7 C -2,6 C 6,8 km/h (2 Bft)
07.12.2013 23:35 -0,1 C 65 % 1026,9 hPa 0,0 l/m 6,3 km/h (2 Bft) O-SO 112 -5,9 C -2,6 C 6,9 km/h (2 Bft)
07.12.2013 23:40 -0,2 C 66 % 1026,9 hPa 0,0 l/m 7,6 km/h (2 Bft) O 90 -5,8 C -4,5 C 9,8 km/h (2 Bft)
07.12.2013 23:45 -0,6 C 66 % 1026,9 hPa 0,0 l/m 7,2 km/h (2 Bft) SO 135 -6,1 C -4,0 C 4,7 km/h (1 Bft)
07.12.2013 23:50 -1,4 C 67 % 1026,9 hPa 0,0 l/m 6,3 km/h (2 Bft) O-SO 112 -6,7 C -3,2 C 6,9 km/h (2 Bft)
07.12.2013 23:55 -1,4 C 68 % 1026,9 hPa 0,0 l/m 6,0 km/h (2 Bft) O-SO 112 -6,5 C -3,3 C 6,8 km/h (2 Bft)
_ Min-Zeit 02:40 14:00 00:00 - 14:00 - - 10:25 23:40 14:00
Minimum _ -2,7 C 52 % 1023,1 hPa - 0,0 km/h (0 Bft) - - -7,7 C -4,5 C 0,0 km/h (0 Bft)
_ Max-Zeit 13:50 02:10 09:40 23:55 14:05 - - 03:55 15:10 14:10
Maximum _ 3,6 C 87 % 1028,0 hPa 0,0 l/m 8,9 km/h
S-SO (2 Bft)
- - -4,1 C 2,0 C 19,2 km/h
S-SO (3 Bft)
Durchschnitt _ 0,2 C 66 % 1026,3 hPa #0,0 l/m 2,5 km/h (1 Bft) S - -5,4 C -1,0 C 2,9 km/h (1 Bft)